Location: Mahannah Oil Field
(37.4664°N, 96.6003°W)
Time: 15:10:10
(UTC+00:00)

A-11 Canister half - Pass Details

Date: 26 January 2021
Orbit: 1525 x 1684 km, 47.3° (Epoch: 05 March)

Event Time Altitude Azimuth Distance (km) Brightness Sun altitude
Rises 04:16:53 0° 298° (WNW) 4,798 12.2 -53.8°
Reaches altitude 10° 04:20:18 10° 290° (WNW) 3,833 11.5 -54.4°
Enters shadow 04:24:25 24° 271° (W) 2,876 10.6 -55.2°
